Weather observations for the past three days for
Norwood, Norwood Memorial Airport
Imperial (Metric)
Date Time (edt) Wind (mph) Vis. (mi.) Weather Sky Cond. Temperature (ºF) Relative Humidity Wind Chill (°F) Heat Index (°F) Pressure Precipitation (in)
Air Dwpt 6 hour altimeter (in) sea level (mb) 1 hr 3 hr 6 hr
Max. Min.
18 11:53 SW 7 10.00 Fair CLR 89.1 73.9 61% 98 30.21 1022.8
18 10:53 SW 5 10.00 Fair CLR 86 72 63% 92 30.22 1023.1
18 09:53 SW 7 10.00 Fair CLR 82.9 71.1 67% 88 30.22 1023.2
18 08:53 SW 9 10.00 Fair CLR 79 68 69% 81 30.22 1023.2
18 07:53 SW 7 10.00 Fair CLR 75 66 75 64.9 74% 76 30.21 1023.0
18 06:53 SW 6 10.00 Fair CLR 72 64.9 79% 30.2 1022.7
18 05:53 S 3 10.00 Fair CLR 66.9 64 91% 30.19 1022.2
18 04:53 S 5 10.00 Fair CLR 64.9 63 93% 30.17 1021.4
18 03:53 S 5 10.00 Fair CLR 66 63 90% 30.16 1021.1
18 02:53 S 5 10.00 Fair CLR 66.9 63 87% 30.15 1020.9
18 01:53 S 5 10.00 Fair CLR 66.9 63 73.9 66.9 87% 30.16 1021.2
18 00:53 S 6 10.00 Fair CLR 69.1 63 81% 30.15 1021.0
17 23:53 S 7 10.00 Fair CLR 69.1 63 81% 30.16 1021.4
17 22:53 S 7 10.00 Fair CLR 70 63 79% 30.17 1021.4
17 21:53 S 8 10.00 Fair CLR 71.1 63 76% 30.16 1021.2
17 20:53 S 7 10.00 Mostly Cloudy BKN100 71.1 63 76% 30.16 1021.1
17 19:53 S 8 10.00 Fair CLR 73.9 63 82.9 73.9 69% 30.14 1020.7
17 18:53 S 8 10.00 Fair CLR 77 64 64% 79 30.13 1020.2
17 17:53 S 14 10.00 Fair CLR 78.1 64 62% 80 30.13 1020.2
17 16:53 S 12 G 23 10.00 Fair CLR 78.1 64 62% 80 30.12 1019.9
17 15:53 S 15 G 23 10.00 A Few Clouds FEW110 79 64 60% 81 30.12 1020.0
17 14:53 S 12 G 22 10.00 Fair CLR 79 64 60% 81 30.14 1020.5
17 13:53 S 13 G 22 10.00 Fair CLR 82 64 82 66 55% 84 30.16 1021.1
17 12:53 S 13 G 24 10.00 Fair CLR 79 63 58% 81 30.15 1020.8
17 11:53 S 12 10.00 Partly Cloudy SCT070 79 64 60% 81 30.17 1021.6
17 10:53 S 10 G 17 10.00 Mostly Cloudy BKN070 75.9 62.1 62% 78 30.2 1022.7
17 09:53 S 13 G 18 10.00 A Few Clouds FEW070 73.9 61 64% 30.22 1023.2
17 08:53 S 10 10.00 Fair CLR 70 61 73% 30.23 1023.5
17 07:53 S 8 10.00 Fair CLR 66 60.1 66 54 81% 30.24 1024.0
17 06:53 S 5 10.00 Fair CLR 62.1 57.9 86% 30.24 1024.1
17 05:53 Calm 9.00 Fair CLR 55 53.1 93% 30.23 1023.6
17 04:53 Calm 10.00 Fair CLR 55.9 53.1 90% 30.24 1023.8
17 03:53 S 3 10.00 Fair CLR 55.9 54 93% 30.23 1023.7
17 02:53 S 3 10.00 Fair CLR 57.9 54 87% 30.23 1023.6
17 01:53 S 6 10.00 Fair CLR 62.1 55.9 68 60.1 80% 30.23 1023.5
17 00:53 SW 6 10.00 Fair CLR 63 55.9 78% 30.23 1023.6
16 23:53 S 6 10.00 Fair CLR 61 55 81% 30.23 1023.5
16 22:53 S 3 10.00 Fair CLR 60.1 54 80% 30.24 1023.8
16 21:53 S 8 10.00 Fair CLR 63 54 73% 30.24 1023.9
16 20:53 S 6 10.00 Fair CLR 64.9 53.1 66% 30.23 1023.6
16 19:53 S 7 10.00 Fair CLR 66.9 54 77 66.9 63% 30.22 1023.3
16 18:53 SE 9 10.00 Fair CLR 71.1 54 55% 30.21 1022.9
16 17:53 S 5 10.00 Fair CLR 75 53.1 46% 78 30.2 1022.5
16 16:53 Vrbl 5 10.00 Fair CLR 75 51.1 43% 78 30.21 1023.0
16 15:53 Calm 10.00 Fair CLR 75 48.9 40% 77 30.22 1023.3
16 14:53 Calm 10.00 Fair CLR 73 48 41% 30.23 1023.7
16 13:53 S 3 10.00 Fair CLR 73.9 50 73.9 64 43% 30.24 1024.0
16 12:53 Vrbl 3 10.00 Fair CLR 72 48.9 44% 30.26 1024.6
16 11:53 Calm 10.00 Fair CLR 70 46.9 44% 30.27 1024.9
16 10:53 E 7 10.00 Fair CLR 69.1 45 42% 30.27 1025.0
16 09:53 E 9 10.00 Fair CLR 66.9 46 47% 30.27 1025.1
16 08:53 NE 5 10.00 Fair CLR 66.9 45 45% 30.28 1025.2
16 07:53 N 6 10.00 Fair CLR 64 48 64 46 56% 30.26 1024.7
16 06:53 Calm 10.00 Fair CLR 55 50 83% 30.25 1024.3
16 05:53 Calm 10.00 Fair CLR 48 46 93% 30.22 1023.4
16 04:53 Calm 9.00 Fair CLR 48.9 46.9 93% 30.2 1022.6
16 03:53 Calm 10.00 Fair CLR 48.9 46.9 93% 30.18 1022.0
16 02:53 Calm 10.00 Fair CLR 51.1 48.9 92% 30.17 1021.7
16 01:53 Calm 10.00 Fair CLR 53.1 48.9 72 52 86% 30.16 1021.4
16 00:53 Calm 10.00 Fair CLR 52 50 93% 30.15 1020.8
15 23:53 NW 3 10.00 Fair CLR 57 48.9 74% 30.13 1020.2
15 22:53 N 5 10.00 Fair CLR 62.1 46 56% 30.11 1019.4
15 21:53 Calm 10.00 Fair CLR 63 50 63% 30.09 1018.7
15 20:53 N 5 10.00 Fair CLR 69.1 45 42% 30.06 1017.8
15 19:53 NW 6 10.00 Fair CLR 72 46.9 79 72 41% 30.02 1016.6
15 18:53 Vrbl 7 G 17 10.00 Fair CLR 75.9 48 37% 78 30 1015.9
15 17:53 N 8 10.00 Fair CLR 77 48 36% 78 29.99 1015.4
15 16:53 N 12 G 21 10.00 Fair CLR 78.1 46 32% 78 29.97 1014.8
15 15:53 NW 10 10.00 Fair CLR 78.1 50 37% 79 29.96 1014.3
15 14:53 NW 14 G 24 10.00 Fair CLR 78.1 48.9 36% 79 29.96 1014.5
15 13:53 NW 9 G 23 10.00 Fair CLR 75.9 45 77 70 33% 77 29.96 1014.4
15 12:53 N 9 10.00 A Few Clouds FEW060 75.9 52 43% 78 29.95 1014.2
Date Time (edt) Wind (mph) Vis. (mi.) Weather Sky Cond. Air Dwpt Max. Min. Relative Humidity Wind Chill (°F) Heat Index (°F) altimeter (in) sea level (mb) 1 hr 3 hr 6 hr
6 hour
Temperature (ºF) Pressure Precipitation (in)